Block Island, RI

3:37 PM EDT on October 18, 2017 (GMT -0400)
Block Island State

Weather History for KBID - April, 2013

Change the Weather History Date:

Monday, April 8, 2013

  Actual Average Record
Temperature  
Mean Temperature 52 °F -  
Max Temperature 59 °F 48 °F 67 °F (1991)
Min Temperature 44 °F 35 °F 24 °F (1972)
Degree Days  
Heating Degree Days 14    
Growing Degree Days 2 (Base 50)    
Moisture  
Dew Point 41 °F    
Average Humidity 73    
Maximum Humidity 87    
Minimum Humidity 51    
Precipitation  
Precipitation 0.00 in - - ()
Sea Level Pressure  
Sea Level Pressure 30.05 in    
Wind  
Wind Speed 13 mph (SW)    
Max Wind Speed 17 mph    
Max Gust Speed 23 mph    
Visibility 10 miles    
Events      
Averages and records for this station are not official NWS values.
T = Trace of Precipitation, MM = Missing Value Source: NWS Daily Summary

Daily Weather History Graph

Daily Weather History Graph

Search for Another Location

Airport or City:

Trip Planner

Search our weather history database for the weather conditions in past years. The results will help you decide how hot, cold, wet, or windy it might be!

Date:

Astronomy

Apr. 08, 2013 Rise Set
Actual Time 6:17 AM EDT 7:19 PM EDT
Civil Twilight 5:49 AM EDT 7:47 PM EDT
Nautical Twilight 5:16 AM EDT 8:20 PM EDT
Astronomical Twilight 4:41 AM EDT 8:56 PM EDT
Moon 5:07 AM EDT (4/8) 5:49 PM EDT (4/8)
Length of Visible Light 13h 57m
Length of Day
13h 01m
Waning Crescent, 3% of the Moon is Illuminated
Apr 8
Waning Crescent
Apr 10
New
Apr 18
First Quarter
Apr 25
Full
May 2
Last Quarter

Hourly Weather History & Observations

Time (EDT) Temp. Windchill Dew Point Humidity Pressure Visibility Wind Dir Wind Speed Gust Speed Precip Events Conditions
12:15 AM 44.6 °F 37.8 °F 39.2 °F 81% 30.06 in 10.0 mi SSW 15.0 mph - N/A   Clear
12:35 AM 44.6 °F 37.8 °F 41.0 °F 87% 30.06 in 10.0 mi SSW 15.0 mph - N/A   Clear
12:55 AM 46.4 °F 39.5 °F 41.0 °F 81% 30.05 in 10.0 mi SSW 17.3 mph 23.0 mph N/A   Clear
1:15 AM 44.6 °F 37.8 °F 41.0 °F 87% 30.05 in 10.0 mi SSW 15.0 mph - N/A   Clear
1:35 AM 44.6 °F 38.1 °F 41.0 °F 87% 30.04 in 10.0 mi SSW 13.8 mph - N/A   Clear
1:55 AM 44.6 °F 38.1 °F 41.0 °F 87% 30.03 in 10.0 mi SSW 13.8 mph - N/A   Clear
2:35 AM 44.6 °F 39.2 °F 41.0 °F 87% 30.02 in 8.0 mi SSW 10.4 mph - N/A   Clear
2:55 AM 44.6 °F 38.8 °F 41.0 °F 87% 30.01 in 9.0 mi SSW 11.5 mph - N/A   Clear
3:15 AM 44.6 °F 38.8 °F 41.0 °F 87% 30.01 in 9.0 mi SW 11.5 mph - N/A   Clear
3:35 AM 44.6 °F 38.8 °F 41.0 °F 87% 30.00 in 9.0 mi SW 11.5 mph - N/A   Clear
3:55 AM 44.6 °F 39.2 °F 41.0 °F 87% 30.00 in 9.0 mi SW 10.4 mph - N/A   Clear
4:15 AM 44.6 °F 39.2 °F 41.0 °F 87% 30.00 in 10.0 mi SW 10.4 mph - N/A   Mostly Cloudy
4:35 AM 44.6 °F 38.1 °F 41.0 °F 87% 30.00 in 10.0 mi SW 13.8 mph - N/A   Overcast
4:55 AM 44.6 °F 38.1 °F 41.0 °F 87% 29.99 in 10.0 mi SW 13.8 mph - N/A   Scattered Clouds
5:15 AM 44.6 °F 37.8 °F 41.0 °F 87% 29.99 in 10.0 mi SW 15.0 mph - N/A   Partly Cloudy
5:35 AM 44.6 °F 38.1 °F 41.0 °F 87% 29.99 in 10.0 mi SW 13.8 mph - N/A   Clear
5:55 AM 44.6 °F 38.1 °F 41.0 °F 87% 30.00 in 10.0 mi WSW 13.8 mph - N/A   Clear
6:15 AM 44.6 °F 38.1 °F 39.2 °F 81% 30.00 in 8.0 mi WSW 13.8 mph - N/A   Partly Cloudy
6:35 AM 44.6 °F 37.8 °F 39.2 °F 81% 30.00 in 8.0 mi WSW 15.0 mph - N/A   Clear
6:55 AM 44.6 °F 37.8 °F 39.2 °F 81% 30.00 in 8.0 mi WSW 15.0 mph - N/A   Partly Cloudy
7:15 AM 44.6 °F 37.8 °F 39.2 °F 81% 30.01 in 8.0 mi WSW 15.0 mph - N/A   Partly Cloudy
7:35 AM 44.6 °F 37.8 °F 39.2 °F 81% 30.03 in 8.0 mi West 15.0 mph - N/A   Partly Cloudy
7:55 AM 46.4 °F 40.7 °F 42.8 °F 87% 30.04 in 8.0 mi West 12.7 mph - N/A   Partly Cloudy
8:35 AM 48.2 °F - 42.8 °F 82% 30.05 in 9.0 mi West 11.5 mph - N/A   Partly Cloudy
8:55 AM 48.2 °F - 42.8 °F 82% 30.05 in 10.0 mi West 11.5 mph - N/A   Clear
9:15 AM 50.0 °F - 42.8 °F 76% 30.05 in 10.0 mi West 9.2 mph - N/A   Clear
9:35 AM 51.8 °F - 42.8 °F 71% 30.05 in 10.0 mi West 10.4 mph - N/A   Clear
9:55 AM 51.8 °F - 42.8 °F 71% 30.05 in 10.0 mi WSW 8.1 mph - N/A   Clear
10:15 AM 51.8 °F - 42.8 °F 71% 30.06 in 10.0 mi West 9.2 mph - N/A   Clear
10:35 AM 51.8 °F - 42.8 °F 71% 30.06 in 10.0 mi West 8.1 mph - N/A   Clear
10:55 AM 53.6 °F - 42.8 °F 67% 30.06 in 10.0 mi West 8.1 mph - N/A   Clear
11:15 AM 53.6 °F - 42.8 °F 67% 30.07 in 10.0 mi WSW 12.7 mph - N/A   Clear
11:35 AM 55.4 °F - 42.8 °F 63% 30.07 in 10.0 mi WSW 10.4 mph - N/A   Clear
11:55 AM 55.4 °F - 42.8 °F 63% 30.07 in 10.0 mi West 9.2 mph - N/A   Clear
12:15 PM 57.2 °F - 42.8 °F 59% 30.07 in 10.0 mi WSW 10.4 mph - N/A   Clear
12:35 PM 57.2 °F - 42.8 °F 59% 30.07 in 10.0 mi SW 12.7 mph - N/A   Clear
12:55 PM 59.0 °F - 41.0 °F 51% 30.07 in 10.0 mi SW 11.5 mph - N/A   Clear
1:15 PM 59.0 °F - 41.0 °F 51% 30.07 in 10.0 mi SW 10.4 mph - N/A   Clear
1:35 PM 57.2 °F - 39.2 °F 51% 30.07 in 10.0 mi SW 11.5 mph - N/A   Clear
1:55 PM 57.2 °F - 41.0 °F 55% 30.07 in 10.0 mi SW 11.5 mph - N/A   Clear
2:15 PM 59.0 °F - 41.0 °F 51% 30.06 in 10.0 mi SW 13.8 mph - N/A   Clear
2:35 PM 57.2 °F - 42.8 °F 59% 30.06 in 10.0 mi SW 15.0 mph - N/A   Clear
2:55 PM 57.2 °F - 42.8 °F 59% 30.06 in 10.0 mi SW 13.8 mph - N/A   Clear
3:15 PM 57.2 °F - 41.0 °F 55% 30.05 in 10.0 mi SW 13.8 mph - N/A   Clear
3:35 PM 57.2 °F - 41.0 °F 55% 30.05 in 10.0 mi SSW 12.7 mph - N/A   Clear
3:55 PM 57.2 °F - 42.8 °F 59% 30.04 in 10.0 mi SW 16.1 mph - N/A   Clear
4:15 PM 55.4 °F - 41.0 °F 58% 30.05 in 10.0 mi SW 15.0 mph - N/A   Clear
4:35 PM 57.2 °F - 41.0 °F 55% 30.04 in 10.0 mi SW 15.0 mph - N/A   Clear
4:55 PM 57.2 °F - 41.0 °F 55% 30.04 in 10.0 mi SW 12.7 mph - N/A   Clear
5:15 PM 57.2 °F - 41.0 °F 55% 30.05 in 10.0 mi SW 13.8 mph - N/A   Clear
5:35 PM 53.6 °F - 39.2 °F 58% 30.05 in 10.0 mi SW 12.7 mph - N/A   Clear
5:55 PM 53.6 °F - 39.2 °F 58% 30.05 in 10.0 mi SW 12.7 mph - N/A   Clear
6:15 PM 53.6 °F - 41.0 °F 62% 30.05 in 10.0 mi SW 12.7 mph - N/A   Clear
6:35 PM 53.6 °F - 41.0 °F 62% 30.05 in 10.0 mi SW 11.5 mph - N/A   Clear
6:55 PM 51.8 °F - 39.2 °F 62% 30.06 in 10.0 mi SW 11.5 mph - N/A   Clear
7:15 PM 51.8 °F - 39.2 °F 62% 30.06 in 10.0 mi SW 12.7 mph - N/A   Clear
7:35 PM 48.2 °F - 39.2 °F 71% 30.07 in 10.0 mi SSW 10.4 mph - N/A   Clear
7:55 PM 46.4 °F 42.4 °F 39.2 °F 76% 30.07 in 10.0 mi SSW 8.1 mph - N/A   Clear
8:15 PM 46.4 °F 42.4 °F 39.2 °F 76% 30.07 in 10.0 mi South 8.1 mph - N/A   Clear
8:35 PM 46.4 °F 42.9 °F 39.2 °F 76% 30.07 in 10.0 mi South 6.9 mph - N/A   Clear
8:55 PM 46.4 °F 42.4 °F 39.2 °F 76% 30.08 in 10.0 mi South 8.1 mph - N/A   Clear
9:15 PM 46.4 °F 42.4 °F 41.0 °F 81% 30.09 in 10.0 mi South 8.1 mph - N/A   Clear
9:35 PM 46.4 °F 44.3 °F 41.0 °F 81% 30.09 in 10.0 mi ESE 4.6 mph - N/A   Clear
9:55 PM 44.6 °F 39.7 °F 39.2 °F 81% 30.10 in 10.0 mi SE 9.2 mph - N/A   Clear
10:15 PM 44.6 °F 39.7 °F 39.2 °F 81% 30.10 in 10.0 mi SE 9.2 mph - N/A   Clear
10:35 PM 44.6 °F 39.7 °F 41.0 °F 87% 30.10 in 10.0 mi SE 9.2 mph - N/A   Clear
10:55 PM 44.6 °F 40.2 °F 41.0 °F 87% 30.10 in 9.0 mi SSE 8.1 mph - N/A   Clear
11:15 PM 44.6 °F 40.2 °F 41.0 °F 87% 30.10 in 9.0 mi SE 8.1 mph - N/A   Clear
11:35 PM 44.6 °F 39.2 °F 41.0 °F 87% 30.09 in 10.0 mi SSE 10.4 mph - N/A   Partly Cloudy
11:55 PM 44.6 °F 37.4 °F 41.0 °F 87% 30.08 in 8.0 mi SSE 16.1 mph - N/A   Partly Cloudy